[[{"header":{"parameterUnit":"m.s-1","parameterCategory":1,"la1":30.2991,"la2":30.254,"lo1":-89.0895,"lo2":-89.0444,"dy":0.0017,"dx":0.0017,"nx":28,"ny":28,"refTime":"2024-08-25T03:00:00:Z","depth":0,"parameterNumber":2,"parameterNumberName":"U-component_of_WINDS"},"data":[0,0,0,0,0,0,0,0,0,0,0,0,0,0,0,0,0,0,0,0,0,0,0,0,0,0,0,0,0,0,0,0,0,0,0,0,0,0,0,0,0,0,0,0,0,0,0,0,0,0,0,0,0,0,0,0,0,0,-4.5956,-4.5955,0,-4.5885,-4.5884,-4.5883,-4.5726,-4.5723,-4.572,-4.5717,-4.5648,-4.565,-4.5651,0,0,0,0,0,0,0,0,0,0,0,0,0,-4.5962,-4.5963,-4.5956,-4.5955,-4.5955,-4.5885,-4.5884,-4.5883,-4.5727,-4.5723,-4.5719,-4.5716,-4.5648,-4.5649,-4.5651,0,0,0,0,0,0,0,0,0,0,0,0,0,-4.5933,-4.5963,-4.5956,-4.5868,-4.5859,-4.5885,-4.5884,-4.5883,-4.5728,-4.5723,-4.5718,-4.5714,-4.5648,-4.5649,-4.5651,-4.5758,0,0,-4.5656,-4.5657,0,0,0,0,0,0,0,0,-4.5934,-4.5932,-4.5882,-4.5874,-4.5865,-4.581,-4.5861,-4.5841,-4.5729,-4.5778,-4.5717,-4.5711,-4.5706,-4.5703,-4.57,-4.5755,-4.5752,-4.5657,-4.5658,-4.5658,-4.5659,0,0,0,0,0,0,0,-4.5937,-4.5935,-4.5928,-4.5881,-4.5871,-4.5834,-4.5824,-4.5857,-4.577,-4.5773,-4.5762,-4.5755,-4.5701,-4.5699,-4.5697,-4.5751,-4.5657,-4.5658,-4.5659,-4.566,-4.5893,-4.5897,0,0,0,0,0,0,-4.5951,-4.5937,-4.593,-4.5926,-4.5888,-4.5838,-4.5827,-4.5832,-4.5769,-4.5755,-4.5759,-4.5748,-4.5698,-4.5696,-4.5695,-4.5816,-4.5658,-4.566,-4.5661,-4.5887,-4.5894,-4.5899,0,0,0,0,0,0,-4.5952,-4.5952,-4.5933,-4.5929,-4.5923,-4.5843,-4.585,-4.5833,-4.5831,-4.5759,-4.5743,-4.5773,-4.5694,-4.5692,-4.5744,-4.5812,-4.5661,-4.5662,-4.5881,-4.5889,-4.5896,-4.6062,0,0,0,0,0,0,-4.5952,-4.5953,-4.5991,-4.593,-4.5924,-4.5983,-4.5854,-4.5835,-4.5834,-4.5819,-4.5768,-4.5754,-4.569,-4.5742,-4.5746,-4.5812,-4.5664,-4.5875,-4.5885,-4.5894,-4.605,-4.6074,-4.6095,0,0,0,0,0,-4.5953,-4.6041,-4.5994,-4.5994,-4.597,-4.5987,-4.5983,-4.5906,-4.584,-4.5879,-4.5833,-4.5756,-4.5804,-4.5749,-4.5751,-4.5819,-4.587,-4.5882,-4.5893,-4.604,-4.6069,-4.6094,0,0,0,0,0,0,-4.6113,-4.6032,-4.5978,-4.6049,-4.6026,-4.596,-4.6007,-4.594,-4.5936,-4.5922,-4.5829,-4.5818,-4.5883,-4.5856,-4.5796,-4.5921,-4.5825,-4.5838,-4.5935,-4.5963,-4.5985,-4.599,-4.5665,0,0,0,0,0,-4.6157,-4.6175,-4.6103,-4.6173,-4.6164,-4.6088,-4.6092,-4.6035,-4.6008,-4.5998,-4.5955,-4.5933,-4.5943,-4.5952,-4.5957,-4.6046,-4.6033,-4.6094,-4.6117,-4.6135,-4.6147,-4.6194,-4.622,-4.5937,-4.5937,-4.5937,0,0,-4.6247,-4.6205,-4.6222,-4.6204,-4.6179,-4.6203,-4.6081,-4.611,-4.6126,-4.6002,-4.6048,-4.6017,-4.5986,-4.6058,-4.6087,-4.6037,-4.6223,-4.615,-4.6166,-4.6167,-4.6208,-4.6235,-4.6259,-4.5945,-4.5943,-4.5942,0,0,-4.6423,-4.6392,-4.6447,-4.6425,-4.6389,-4.6338,-4.6352,-4.6296,-4.627,-4.6315,-4.6223,-4.6242,-4.6261,-4.6243,-4.6237,-4.6409,-4.6339,-4.6414,-4.6531,-4.6578,-4.66,-4.6619,-4.6682,-4.6705,-4.6426,-4.6426,-4.6427,0,-4.6539,-4.6568,-4.6484,-4.6519,-4.6515,-4.6403,-4.6459,-4.6443,-4.6411,-4.6412,-4.6356,-4.6379,-4.635,-4.6416,-4.6459,-4.6457,-4.6471,-4.6419,-4.6603,-4.6622,-4.6639,-4.6697,-4.6721,-4.6436,-4.6435,-4.6434,-4.6433,0,-4.6714,-4.6737,-4.6786,-4.6757,-4.6758,-4.6804,-4.6728,-4.6741,-4.6685,-4.664,-4.6689,-4.6651,-4.6647,-4.6658,-4.6604,-4.6718,-4.6688,-4.662,-4.6522,-4.6677,-4.673,-4.6751,-4.6449,-4.6446,-4.6443,-4.6441,0,0,-4.6987,-4.6912,-4.6932,-4.6918,-4.6871,-4.6887,-4.693,-4.6925,-4.6937,-4.692,-4.6954,-4.6974,-4.6911,-4.6904,-4.6847,-4.6888,-4.7028,-4.6814,-4.6812,-4.6856,-4.7152,-4.7204,-4.7231,-4.6981,-4.6985,-4.6988,-4.7155,0,-4.7151,-4.7216,-4.7143,-4.7225,-4.7245,-4.7141,-4.7178,-4.7154,-4.7115,-4.7128,-4.7085,-4.7101,-4.7016,-4.7011,-4.7047,-4.7003,-4.7086,-4.699,-4.7013,-4.7015,-4.7023,-4.7258,-4.7312,-4.7471,-4.7175,-4.7178,-4.7181,0,-4.7351,-4.7343,-4.7427,-4.7376,-4.7382,-4.7416,-4.7406,-4.742,-4.7392,-4.7361,-4.7355,-4.7286,-4.7326,-4.7231,-4.7286,-4.7222,-4.7228,-4.7208,-4.7213,-4.7211,-4.7107,-4.7264,-4.752,-4.7544,-4.7213,-4.721,-4.7208,0,-4.7542,-4.7552,-4.7603,-4.7595,-4.7537,-4.7564,-4.7542,-4.7509,-4.7511,-4.7504,-4.7505,-4.7504,-4.7503,-4.7504,-4.7438,-4.7375,-4.7502,-4.7401,-4.7478,-4.748,-4.7509,-4.7508,-4.777,-4.7513,-4.7513,-4.7512,-4.7512,0,-4.7733,-4.7789,-4.7688,-4.772,-4.778,-4.7696,-4.7759,-4.7726,-4.7698,-4.7723,-4.7634,-4.766,-4.7571,-4.7588,-4.7537,-4.759,-4.7591,-4.7568,-4.7553,-4.7576,-4.7579,-4.7577,-4.7565,-4.7519,-4.7517,-4.7516,-4.7515,0,-4.7956,-4.7891,-4.794,-4.7882,-4.7869,-4.7916,-4.7866,-4.7894,-4.785,-4.7883,-4.7886,-4.7817,-4.7833,-4.7767,-4.7772,-4.7738,-4.7818,-4.7785,-4.7827,-4.7817,-4.7897,-4.7891,-4.8167,-4.82,-4.7923,-4.7926,-4.7928,0,-4.8082,-4.8122,-4.8068,-4.8078,-4.806,-4.8077,-4.8079,-4.7999,-4.8006,-4.7979,-4.8011,-4.8019,-4.8021,-4.8051,-4.8003,-4.8007,-4.7973,-4.807,-4.7973,-4.7995,-4.7975,-4.7974,-4.7978,-4.809,-4.8094,-4.8096,-4.8099,0,-4.8312,-4.8279,-4.8284,-4.828,-4.8285,-4.8278,-4.8265,-4.8278,-4.8193,-4.8205,-4.8219,-4.8221,-4.8226,-4.8236,-4.823,-4.8209,-4.8141,-4.813,-4.8148,-4.817,-4.8193,-4.8182,-4.7882,-4.8123,-4.8121,-4.8119,-4.8118,-4.8117,-4.849,-4.8521,-4.8489,-4.8499,-4.8481,-4.8471,-4.8495,-4.8454,-4.8464,-4.8461,-4.8414,-4.8438,-4.8412,-4.8397,-4.8383,-4.8402,-4.8356,-4.8382,-4.8389,-4.8397,-4.8411,-4.8191,-4.84,-4.8399,-4.8399,-4.8398,-4.8397,0,-4.8716,-4.869,-4.87,-4.8685,-4.8694,-4.8628,-4.8611,-4.8623,-4.8645,-4.8625,-4.863,-4.8648,-4.8657,-4.8611,-4.8614,-4.8639,-4.8608,-4.8643,-4.864,-4.8636,-4.8451,-4.8435,-4.8668,-4.8668,-4.8668,-4.8667,-4.8667,-4.8667,-4.8834,-4.8884,-4.8847,-4.8888,-4.8862,-4.8884,-4.888,-4.8872,-4.8856,-4.888,-4.8887,-4.8856,-4.8827,-4.8828,-4.8835,-4.8821,-4.8827,-4.8872,-4.8848,-4.8675,-4.8649,-4.8624,-4.8609,-4.8874,-4.8875,-4.9032,-4.9033,-4.9035]},{"header":{"parameterUnit":"m.s-1","parameterCategory":1,"la1":30.2991,"la2":30.254,"lo1":-89.0895,"lo2":-89.0444,"dy":0.0017,"dx":0.0017,"nx":28,"ny":28,"refTime":"2024-08-25T03:00:00:Z","depth":0,"parameterNumber":3,"parameterNumberName":"V-component_of_WINDS"},"data":[0,0,0,0,0,0,0,0,0,0,0,0,0,0,0,0,0,0,0,0,0,0,0,0,0,0,0,0,0,0,0,0,0,0,0,0,0,0,0,0,0,0,0,0,0,0,0,0,0,0,0,0,0,0,0,0,0,0,1.9708,1.9708,0,1.9749,1.975,1.975,1.9808,1.9809,1.981,1.9811,1.9848,1.9848,1.9848,0,0,0,0,0,0,0,0,0,0,0,0,0,1.9676,1.9676,1.9708,1.9708,1.9709,1.9749,1.975,1.975,1.9808,1.9809,1.981,1.9811,1.9848,1.9848,1.9848,0,0,0,0,0,0,0,0,0,0,0,0,0,1.97,1.9676,1.9708,1.9742,1.9746,1.9749,1.975,1.975,1.9807,1.9809,1.981,1.9812,1.9848,1.9848,1.9848,1.9819,0,0,1.9849,1.9849,0,0,0,0,0,0,0,0,1.9699,1.9701,1.9737,1.974,1.9744,1.9775,1.9752,1.9773,1.9807,1.9784,1.9811,1.9812,1.9822,1.9825,1.9829,1.9821,1.9823,1.9849,1.9849,1.9849,1.9849,0,0,0,0,0,0,0,1.9697,1.97,1.9724,1.9737,1.9742,1.9755,1.976,1.9756,1.9794,1.9786,1.979,1.9795,1.9825,1.9829,1.983,1.9823,1.9849,1.9849,1.9849,1.9849,1.9794,1.9793,0,0,0,0,0,0,1.9691,1.9698,1.9723,1.9725,1.9725,1.9754,1.976,1.9763,1.9794,1.9801,1.9793,1.9797,1.9828,1.983,1.9832,1.98,1.9849,1.9849,1.9849,1.9796,1.9794,1.9792,0,0,0,0,0,0,1.969,1.9692,1.9721,1.9713,1.9718,1.9753,1.9756,1.9763,1.9768,1.98,1.9807,1.9791,1.9829,1.9832,1.9822,1.9802,1.9849,1.9849,1.9797,1.9795,1.9793,1.9735,0,0,0,0,0,0,1.9689,1.9692,1.9681,1.9712,1.9718,1.9711,1.9755,1.9763,1.9768,1.9774,1.9799,1.9805,1.983,1.9822,1.9823,1.9803,1.9849,1.9799,1.9796,1.9794,1.9739,1.9731,1.9724,0,0,0,0,0,1.9687,1.9662,1.9681,1.9683,1.9706,1.971,1.9713,1.9744,1.9766,1.9756,1.9777,1.9804,1.9805,1.9821,1.9822,1.9802,1.9801,1.9797,1.9794,1.9742,1.9732,1.9724,0,0,0,0,0,0,1.9626,1.9667,1.9688,1.9672,1.9688,1.972,1.9708,1.9733,1.9741,1.9746,1.9783,1.9788,1.9774,1.9787,1.9805,1.9775,1.9807,1.9803,1.9767,1.9758,1.9751,1.9747,1.9849,0,0,0,0,0,1.9611,1.9612,1.9648,1.963,1.9637,1.9671,1.9674,1.9697,1.9714,1.972,1.974,1.9754,1.9758,1.9759,1.9764,1.9742,1.9748,1.9729,1.9721,1.9715,1.9711,1.97,1.9692,1.9781,1.9781,1.9781,0,0,1.9579,1.9602,1.9599,1.9619,1.9633,1.9633,1.9676,1.9673,1.9673,1.9719,1.9712,1.9728,1.9746,1.973,1.9724,1.974,1.9689,1.9711,1.9706,1.9705,1.9696,1.9688,1.968,1.9779,1.9779,1.9779,0,0,1.952,1.9538,1.9526,1.954,1.9563,1.9586,1.9583,1.9613,1.9625,1.9619,1.9654,1.9654,1.9659,1.9671,1.9677,1.9626,1.9651,1.9627,1.9587,1.9577,1.957,1.9564,1.9544,1.9537,1.9623,1.9623,1.9623,0,1.9477,1.9479,1.9516,1.9512,1.9519,1.9564,1.9551,1.9563,1.9585,1.9588,1.9607,1.9616,1.9631,1.9618,1.9606,1.9611,1.9607,1.9623,1.9568,1.9562,1.9557,1.9539,1.9532,1.962,1.962,1.962,1.9621,0,1.9424,1.9425,1.9412,1.9435,1.9441,1.9432,1.9467,1.9469,1.9492,1.9513,1.9507,1.9527,1.9537,1.9537,1.9558,1.9527,1.9537,1.9561,1.9593,1.9545,1.9528,1.9522,1.9615,1.9616,1.9617,1.9618,0,0,1.9324,1.937,1.9365,1.9376,1.9405,1.9406,1.94,1.9412,1.9412,1.9427,1.9421,1.9426,1.945,1.9457,1.9481,1.9472,1.9429,1.9497,1.9498,1.9483,1.9395,1.9375,1.9367,1.9447,1.9446,1.9445,1.9393,0,1.927,1.9263,1.9298,1.9281,1.9282,1.9326,1.9321,1.9338,1.9358,1.9361,1.9383,1.9385,1.9416,1.9421,1.9414,1.9435,1.9411,1.944,1.9441,1.944,1.9433,1.9358,1.9337,1.9287,1.9387,1.9386,1.9385,0,1.9205,1.9219,1.9202,1.9234,1.9236,1.9231,1.9245,1.9248,1.9268,1.9283,1.9293,1.9322,1.9317,1.9349,1.9343,1.9362,1.9364,1.9375,1.9374,1.9373,1.9408,1.9354,1.9272,1.9264,1.9376,1.9377,1.9377,0,1.9133,1.9147,1.9139,1.9148,1.9185,1.918,1.9195,1.9217,1.9222,1.9235,1.9238,1.9249,1.9255,1.9262,1.9293,1.9314,1.9282,1.9317,1.9293,1.9293,1.9283,1.9282,1.9198,1.9288,1.9288,1.9288,1.9288,0,1.9067,1.9055,1.9108,1.9102,1.9091,1.9131,1.9117,1.9137,1.9156,1.9155,1.9194,1.9192,1.9233,1.9236,1.926,1.925,1.9253,1.9264,1.927,1.9259,1.9257,1.926,1.9263,1.9286,1.9286,1.9287,1.9287,0,1.8983,1.9018,1.9012,1.9049,1.9058,1.9048,1.9079,1.9075,1.9099,1.9097,1.9099,1.9135,1.914,1.9173,1.9184,1.92,1.9181,1.9195,1.9174,1.9178,1.9152,1.9154,1.9065,1.9055,1.9152,1.9151,1.915,0,1.8938,1.893,1.8967,1.897,1.8984,1.8988,1.8995,1.9034,1.9039,1.9063,1.9056,1.9065,1.9074,1.9079,1.9106,1.9115,1.9128,1.9097,1.913,1.9119,1.9126,1.9125,1.9124,1.9089,1.9087,1.9086,1.9086,0,1.8854,1.8872,1.8881,1.8896,1.8903,1.8916,1.8932,1.8932,1.8976,1.8979,1.8986,1.8993,1.9006,1.9013,1.9028,1.9042,1.907,1.9076,1.907,1.9058,1.9046,1.9051,1.9153,1.9077,1.9078,1.9078,1.9079,1.9079,1.8787,1.8782,1.8808,1.8817,1.8833,1.8847,1.8846,1.8871,1.8878,1.8893,1.8916,1.8919,1.8941,1.8964,1.8976,1.8978,1.8995,1.8987,1.8985,1.8982,1.8976,1.9048,1.8981,1.8981,1.8982,1.8982,1.8982,0,1.8704,1.8723,1.8731,1.8753,1.876,1.8789,1.8808,1.8811,1.8815,1.8833,1.8842,1.885,1.8858,1.8886,1.8897,1.8894,1.8907,1.8895,1.8894,1.8897,1.8961,1.8964,1.8884,1.8884,1.8884,1.8884,1.8884,1.8884,1.8661,1.8655,1.8677,1.8679,1.8699,1.8704,1.8712,1.8725,1.8741,1.8748,1.8756,1.8775,1.8798,1.8811,1.882,1.8828,1.8829,1.8812,1.8824,1.8883,1.8892,1.8901,1.8904,1.8813,1.8813,1.876,1.876,1.8759]}]]